This is the latest recevied weather packets stored in our database for station/object KN6CRX. If no packets are shown the sender has not sent any weather packets the latest 10 day(s).
| Time | Temp. | Humidity | Pressure | Rain* | Wind** | Luminosity | Snow |
|---|---|---|---|---|---|---|---|
| 1787907568 | 19.44° C | 58% | 1020.7 hPa | 0 mm | - | 0 W/m² | - |
| 1787907267 | 20° C | 57% | 1020.9 hPa | 0 mm | - | 0 W/m² | - |
| 1787906964 | 20° C | 57% | 1020.6 hPa | 0 mm | - | 0 W/m² | - |
| 1787906660 | 20° C | 54% | 1020.7 hPa | 0 mm | - | 0 W/m² | - |
| 1787906355 | 20.56° C | 54% | 1020.7 hPa | 0 mm | - | 0 W/m² | - |
| 1787906054 | 20.56° C | 54% | 1020.7 hPa | 0 mm | - | 0 W/m² | - |
| 1787905750 | 20.56° C | 53% | 1020.3 hPa | 0 mm | - | 0 W/m² | - |
| 1787905446 | 20.56° C | 53% | 1020.5 hPa | 0 mm | - | 0 W/m² | - |
| 1787905141 | 21.11° C | 53% | 1020.5 hPa | 0 mm | - | 0 W/m² | - |
| 1787904836 | 21.11° C | 52% | 1020.5 hPa | 0 mm | - | 0 W/m² | - |
| 1787904533 | 21.11° C | 51% | 1020.6 hPa | 0 mm | - | 0 W/m² | - |
| 1787904232 | 21.67° C | 49% | 1020.6 hPa | 0 mm | - | 0 W/m² | - |
| 1787903926 | 21.67° C | 47% | 1020.2 hPa | 0 mm | - | 0 W/m² | - |
| 1787903624 | 22.22° C | 47% | 1020.5 hPa | 0 mm | - | 0 W/m² | - |
| 1787903324 | 21.67° C | 47% | 1020.3 hPa | 0 mm | - | 0 W/m² | - |
| 1787903020 | 21.67° C | 49% | 1020.3 hPa | 0 mm | - | 0 W/m² | - |
| 1787902716 | 21.67° C | 49% | 1020.2 hPa | 0 mm | - | 0 W/m² | - |
| 1787902411 | 21.67° C | 49% | 1020.3 hPa | 0 mm | - | 0 W/m² | - |
| 1787902107 | 21.67° C | 49% | 1020.2 hPa | 0 mm | - | 0 W/m² | - |
| 1787901802 | 21.67° C | 50% | 1020.2 hPa | 0 mm | - | 0 W/m² | - |
| 1787901497 | 21.67° C | 49% | 1020.3 hPa | 0 mm | - | 0 W/m² | - |
| 1787901194 | 21.67° C | 49% | 1020.1 hPa | 0 mm | - | 0 W/m² | - |
| 1787900894 | 21.67° C | 49% | 1020 hPa | 0 mm | - | 0 W/m² | - |
| 1787900589 | 22.22° C | 48% | 1020.1 hPa | 0 mm | - | 0 W/m² | - |
| 1787900288 | 22.22° C | 48% | 1020.1 hPa | 0 mm | - | 0 W/m² | - |
* Rain latest hour (hover to see other rain measurements)
** Current wind speed in m/s (hover to see current wind gust speed)